sat.trackr.live / text

‹ back to catalog

FLOCK 4G-34

NORAD 62650 · 2025-009AT

PAYLOAD ACTIVE UNKNOWN

§ Identity

Operator
Country
US
Launch date
2025-01-14
Launch site
AFWTR
Launch vehicle
Mass (kg)
RCS (m²)

Purposes: earth_obs

External: N2YO · Heavens-Above · Gunter

§ Orbital elements

Epoch: 2026-05-25T03:43:16.089312Z

Period
94.20 min
Inclination
97.3963°
Eccentricity
0.0002806
Mean motion
15.28736708 rev/d
Perigee alt
477.7 km
Apogee alt
481.5 km
Semi-major
6,857.7 km
B*
3.6606e-4
RAAN
226.8852°
Arg perigee
67.7298°
Mean anomaly
292.4239°
Rev number
7,539

§ Raw data

FLOCK 4G-341 62650U 25009AT  26145.15504733  .00010156  00000+0  36606-3 0  99972 62650  97.3963 226.8852 0002806  67.7298 292.4239 15.28736708 75398

JSON: /api/v1/satellites/62650 · /tle

For live sub-satellite position, see the globe view (requires WebGL).

§ Visibility from observer

Set your observer location to see the next 7 days of passes ≥ 10°. The values pass through the URL so the page stays shareable.

No JS? Fill the form by hand. The geolocation button needs JavaScript.